[[{"header":{"parameterUnit":"m.s-1","parameterCategory":1,"la1":30.2991,"la2":30.254,"lo1":-89.0895,"lo2":-89.0444,"dy":0.0017,"dx":0.0017,"nx":28,"ny":28,"refTime":"2023-09-26T03:00:00:Z","depth":0,"parameterNumber":2,"parameterNumberName":"U-component_of_WINDS"},"data":[0,0,0,0,0,0,0,0,0,0,0,0,0,0,0,0,0,0,0,0,0,0,0,0,0,0,0,0,0,0,0,0,0,0,0,0,0,0,0,0,0,0,0,0,0,0,0,0,0,0,0,0,0,0,0,0,0,0,-4.6157,-4.6157,0,-4.6203,-4.6204,-4.6204,-4.6054,-4.6049,-4.6045,-4.6041,-4.6088,-4.6094,-4.6099,0,0,0,0,0,0,0,0,0,0,0,0,0,-4.5937,-4.5941,-4.6157,-4.6158,-4.6158,-4.6203,-4.6204,-4.6205,-4.6055,-4.6049,-4.6044,-4.6038,-4.6086,-4.6093,-4.61,0,0,0,0,0,0,0,0,0,0,0,0,0,-4.6013,-4.5943,-4.6157,-4.6089,-4.6083,-4.6203,-4.6204,-4.6205,-4.6056,-4.6049,-4.6042,-4.6036,-4.6084,-4.6092,-4.61,-4.6288,0,0,-4.6126,-4.6129,0,0,0,0,0,0,0,0,-4.6009,-4.6021,-4.6098,-4.6094,-4.6088,-4.6116,-4.6144,-4.6233,-4.6058,-4.6066,-4.604,-4.6033,-4.6103,-4.6109,-4.6133,-4.6291,-4.6293,-4.6126,-4.6131,-4.6135,-4.6137,0,0,0,0,0,0,0,-4.6004,-4.6018,-4.6175,-4.6099,-4.6093,-4.6055,-4.6059,-4.616,-4.6122,-4.6065,-4.6054,-4.6062,-4.6099,-4.6125,-4.6133,-4.6293,-4.6126,-4.6134,-4.6139,-4.6142,-4.6605,-4.6612,0,0,0,0,0,0,-4.6007,-4.6015,-4.6174,-4.6177,-4.603,-4.6065,-4.6068,-4.6114,-4.6121,-4.6115,-4.6068,-4.6055,-4.6115,-4.6124,-4.6134,-4.6352,-4.6135,-4.6143,-4.6147,-4.6597,-4.6606,-4.6614,0,0,0,0,0,0,-4.6003,-4.6023,-4.6172,-4.6093,-4.6109,-4.6076,-4.6128,-4.6118,-4.6145,-4.6123,-4.6115,-4.6102,-4.611,-4.6122,-4.625,-4.6352,-4.6146,-4.6154,-4.6589,-4.66,-4.661,-4.6793,0,0,0,0,0,0,-4.5998,-4.6022,-4.6094,-4.6096,-4.6114,-4.6289,-4.6134,-4.6124,-4.6159,-4.6143,-4.6153,-4.6148,-4.6105,-4.6239,-4.6259,-4.636,-4.616,-4.6579,-4.6594,-4.6607,-4.6777,-4.6808,-4.6835,0,0,0,0,0,-4.599,-4.6144,-4.6098,-4.6118,-4.6203,-4.6295,-4.6305,-4.6253,-4.6168,-4.6239,-4.6225,-4.6148,-4.6338,-4.6253,-4.6274,-4.6379,-4.6573,-4.659,-4.6606,-4.6764,-4.6802,-4.6834,0,0,0,0,0,0,-4.6155,-4.6143,-4.6092,-4.6251,-4.6275,-4.6269,-4.6357,-4.6295,-4.6343,-4.6326,-4.6259,-4.6262,-4.6402,-4.6403,-4.6309,-4.656,-4.6441,-4.6462,-4.6554,-4.659,-4.6618,-4.6614,-4.6167,0,0,0,0,0,-4.621,-4.6287,-4.6271,-4.6413,-4.6428,-4.6391,-4.6429,-4.6387,-4.6409,-4.6418,-4.6413,-4.6437,-4.6502,-4.6546,-4.6605,-4.6777,-4.6776,-4.686,-4.6888,-4.6912,-4.6931,-4.702,-4.7056,-4.6668,-4.6668,-4.6668,0,0,-4.6325,-4.6327,-4.638,-4.6446,-4.646,-4.6539,-4.6401,-4.6491,-4.6549,-4.6432,-4.6552,-4.6549,-4.6572,-4.6722,-4.6788,-4.6728,-4.7038,-4.6933,-4.6952,-4.6958,-4.7041,-4.7077,-4.711,-4.668,-4.6678,-4.6676,0,0,-4.6573,-4.6584,-4.6701,-4.6718,-4.674,-4.6714,-4.6743,-4.6746,-4.674,-4.6859,-4.6772,-4.684,-4.6954,-4.6973,-4.6997,-4.7252,-4.7182,-4.7273,-4.7423,-4.7511,-4.7541,-4.7568,-4.7656,-4.7689,-4.7292,-4.7293,-4.7293,0,-4.6712,-4.6829,-4.677,-4.6866,-4.6897,-4.6795,-4.6913,-4.6931,-4.6972,-4.6996,-4.6927,-4.7067,-4.7075,-4.7227,-4.7289,-4.7313,-4.7342,-4.7271,-4.7542,-4.7568,-4.7592,-4.7675,-4.7709,-4.7303,-4.7302,-4.7301,-4.73,0,-4.6997,-4.708,-4.7173,-4.7213,-4.7255,-4.7362,-4.7319,-4.7368,-4.7322,-4.7304,-4.7425,-4.7431,-4.7488,-4.7522,-4.7478,-4.7668,-4.7629,-4.7553,-4.7431,-4.764,-4.7718,-4.775,-4.7319,-4.7315,-4.7312,-4.7309,0,0,-4.7351,-4.7357,-4.7392,-4.7408,-4.7425,-4.7487,-4.7589,-4.7644,-4.7687,-4.7718,-4.7801,-4.7899,-4.7828,-4.7856,-4.7813,-4.789,-4.8089,-4.7803,-4.7803,-4.7855,-4.8295,-4.8351,-4.8389,-4.8043,-4.8049,-4.8054,-4.8292,0,-4.7593,-4.7767,-4.7717,-4.7891,-4.7965,-4.7868,-4.7956,-4.7976,-4.7961,-4.8021,-4.8005,-4.8074,-4.7976,-4.7992,-4.8064,-4.8049,-4.8176,-4.8032,-4.8117,-4.8121,-4.8113,-4.843,-4.849,-4.8715,-4.8323,-4.8328,-4.8332,0,-4.7899,-4.7942,-4.8123,-4.8125,-4.8155,-4.8235,-4.8281,-4.834,-4.836,-4.8343,-4.8375,-4.8316,-4.8414,-4.8293,-4.8427,-4.833,-4.8363,-4.8361,-4.8368,-4.8372,-4.8238,-4.8441,-4.8786,-4.8819,-4.8379,-4.8375,-4.8372,0,-4.8136,-4.8239,-4.836,-4.8377,-4.8384,-4.8442,-4.8447,-4.846,-4.8496,-4.8536,-4.8558,-4.861,-4.8638,-4.8679,-4.8635,-4.8552,-4.8776,-4.8651,-4.8763,-4.8765,-4.8813,-4.881,-4.9166,-4.8838,-4.8838,-4.8837,-4.8836,0,-4.8411,-4.8525,-4.8466,-4.854,-4.8665,-4.8606,-4.8731,-4.8725,-4.8737,-4.8808,-4.8728,-4.8796,-4.8735,-4.8797,-4.8764,-4.8879,-4.8893,-4.8881,-4.887,-4.8887,-4.8888,-4.8906,-4.8888,-4.8846,-4.8844,-4.8842,-4.8841,0,-4.8695,-4.8661,-4.8786,-4.8782,-4.8783,-4.8875,-4.887,-4.8938,-4.8918,-4.9008,-4.9026,-4.8994,-4.9063,-4.9024,-4.9095,-4.9072,-4.9221,-4.919,-4.9214,-4.9205,-4.9318,-4.9307,-4.9696,-4.9743,-4.9387,-4.9391,-4.9394,0,-4.8872,-4.8957,-4.8962,-4.9003,-4.9014,-4.9082,-4.9118,-4.9064,-4.9104,-4.9132,-4.9197,-4.9259,-4.9305,-4.942,-4.9402,-4.9456,-4.9424,-4.9557,-4.9432,-4.9445,-4.9423,-4.9418,-4.9425,-4.9581,-4.9586,-4.9589,-4.9592,0,-4.9188,-4.9166,-4.9221,-4.9271,-4.9316,-4.9352,-4.9382,-4.942,-4.9365,-4.9415,-4.9485,-4.9521,-4.9593,-4.9655,-4.97,-4.9705,-4.9639,-4.9632,-4.966,-4.9676,-4.9686,-4.968,-4.928,-4.9622,-4.9619,-4.9617,-4.9615,-4.9614,-4.9422,-4.9492,-4.9506,-4.957,-4.9586,-4.9615,-4.9678,-4.9665,-4.9722,-4.9776,-4.9741,-4.9822,-4.9838,-4.9892,-4.9905,-4.9967,-4.9913,-4.9955,-4.9965,-4.9976,-4.999,-4.9678,-4.9976,-4.9975,-4.9974,-4.9973,-4.9972,0,-4.9731,-4.9735,-4.9795,-4.9838,-4.9888,-4.9822,-4.9851,-4.9897,-4.9969,-4.999,-5.0037,-5.0116,-5.0176,-5.0163,-5.0216,-5.0268,-5.024,-5.0284,-5.0278,-5.028,-5.0036,-5.0005,-5.0306,-5.0306,-5.0306,-5.0306,-5.0306,-5.0306,-4.9898,-5.0013,-4.9993,-5.0115,-5.0118,-5.0197,-5.0219,-5.0245,-5.026,-5.0352,-5.0401,-5.0392,-5.0399,-5.0452,-5.0503,-5.0498,-5.052,-5.0575,-5.0559,-5.0331,-5.0298,-5.0266,-5.0236,-5.0581,-5.0582,-5.0797,-5.0799,-5.0801]},{"header":{"parameterUnit":"m.s-1","parameterCategory":1,"la1":30.2991,"la2":30.254,"lo1":-89.0895,"lo2":-89.0444,"dy":0.0017,"dx":0.0017,"nx":28,"ny":28,"refTime":"2023-09-26T03:00:00:Z","depth":0,"parameterNumber":3,"parameterNumberName":"V-component_of_WINDS"},"data":[0,0,0,0,0,0,0,0,0,0,0,0,0,0,0,0,0,0,0,0,0,0,0,0,0,0,0,0,0,0,0,0,0,0,0,0,0,0,0,0,0,0,0,0,0,0,0,0,0,0,0,0,0,0,0,0,0,0,-1.9449,-1.9448,0,-1.9421,-1.942,-1.942,-1.939,-1.939,-1.9389,-1.9389,-1.936,-1.9359,-1.9359,0,0,0,0,0,0,0,0,0,0,0,0,0,-1.9473,-1.9473,-1.9449,-1.9448,-1.9448,-1.9421,-1.942,-1.942,-1.939,-1.939,-1.9389,-1.9389,-1.936,-1.9359,-1.9359,0,0,0,0,0,0,0,0,0,0,0,0,0,-1.9456,-1.9473,-1.9449,-1.943,-1.9428,-1.9421,-1.942,-1.942,-1.939,-1.939,-1.9389,-1.9389,-1.936,-1.9359,-1.9359,-1.9367,0,0,-1.9357,-1.9357,0,0,0,0,0,0,0,0,-1.9457,-1.9455,-1.9433,-1.9431,-1.9429,-1.9408,-1.9418,-1.9402,-1.9391,-1.9405,-1.9389,-1.9388,-1.9376,-1.9374,-1.937,-1.9366,-1.9365,-1.9357,-1.9356,-1.9356,-1.9356,0,0,0,0,0,0,0,-1.9458,-1.9456,-1.9438,-1.9433,-1.943,-1.9422,-1.9419,-1.9415,-1.9394,-1.9403,-1.9401,-1.9398,-1.9375,-1.9371,-1.9369,-1.9364,-1.9357,-1.9356,-1.9356,-1.9356,-1.9362,-1.9362,0,0,0,0,0,0,-1.9462,-1.9457,-1.9438,-1.9437,-1.9442,-1.9422,-1.9418,-1.9416,-1.9394,-1.939,-1.9399,-1.9397,-1.9372,-1.937,-1.9368,-1.9375,-1.9356,-1.9356,-1.9355,-1.9361,-1.9362,-1.9362,0,0,0,0,0,0,-1.9463,-1.9461,-1.944,-1.9446,-1.9443,-1.9422,-1.9419,-1.9415,-1.9411,-1.9391,-1.9387,-1.9399,-1.9372,-1.9369,-1.9367,-1.9373,-1.9355,-1.9355,-1.936,-1.9361,-1.9362,-1.9389,0,0,0,0,0,0,-1.9464,-1.9461,-1.9466,-1.9447,-1.9443,-1.944,-1.942,-1.9415,-1.941,-1.9408,-1.939,-1.9386,-1.9371,-1.9368,-1.9366,-1.9372,-1.9354,-1.936,-1.9361,-1.9362,-1.9388,-1.9391,-1.9393,0,0,0,0,0,-1.9465,-1.9475,-1.9466,-1.9464,-1.9448,-1.9441,-1.9438,-1.9421,-1.9411,-1.9414,-1.94,-1.9387,-1.9373,-1.9368,-1.9366,-1.9372,-1.9359,-1.936,-1.9362,-1.9386,-1.939,-1.9393,0,0,0,0,0,0,-1.9496,-1.9472,-1.9462,-1.9467,-1.9456,-1.9436,-1.9439,-1.9426,-1.9418,-1.9416,-1.9394,-1.939,-1.939,-1.9381,-1.9376,-1.9377,-1.9364,-1.9365,-1.9383,-1.9387,-1.939,-1.9392,-1.9354,0,0,0,0,0,-1.9503,-1.95,-1.948,-1.9485,-1.948,-1.9461,-1.9457,-1.9444,-1.9432,-1.9427,-1.9414,-1.9402,-1.9394,-1.939,-1.9382,-1.9386,-1.938,-1.9388,-1.9391,-1.9394,-1.9395,-1.9393,-1.9395,-1.9366,-1.9366,-1.9366,0,0,-1.9519,-1.9505,-1.9505,-1.9491,-1.9481,-1.9477,-1.9457,-1.9455,-1.9451,-1.9427,-1.9424,-1.9413,-1.9398,-1.9398,-1.9397,-1.939,-1.9401,-1.9395,-1.9397,-1.9397,-1.9394,-1.9397,-1.9399,-1.9367,-1.9367,-1.9367,0,0,-1.9544,-1.9535,-1.9537,-1.9527,-1.9512,-1.9498,-1.9498,-1.9479,-1.9471,-1.9467,-1.9448,-1.9443,-1.9432,-1.9421,-1.9414,-1.9431,-1.9417,-1.9429,-1.9444,-1.9443,-1.9445,-1.9447,-1.9451,-1.9453,-1.943,-1.943,-1.943,0,-1.9565,-1.9559,-1.954,-1.9538,-1.9531,-1.9508,-1.9509,-1.95,-1.9483,-1.9479,-1.9471,-1.9453,-1.9442,-1.9438,-1.9441,-1.9437,-1.9435,-1.9431,-1.9446,-1.9448,-1.945,-1.9453,-1.9455,-1.9432,-1.9431,-1.9431,-1.9431,0,-1.9585,-1.958,-1.9584,-1.9567,-1.9561,-1.956,-1.9539,-1.9535,-1.9522,-1.9508,-1.9503,-1.9488,-1.9475,-1.9473,-1.9461,-1.9466,-1.9462,-1.9451,-1.9437,-1.9454,-1.9457,-1.9459,-1.9434,-1.9433,-1.9433,-1.9432,0,0,-1.9631,-1.9602,-1.9603,-1.9594,-1.9574,-1.9569,-1.9566,-1.9553,-1.9549,-1.9537,-1.9533,-1.9522,-1.951,-1.9502,-1.9488,-1.9487,-1.9498,-1.9475,-1.9474,-1.9479,-1.95,-1.9508,-1.951,-1.9489,-1.9489,-1.9489,-1.9501,0,-1.9652,-1.9647,-1.9627,-1.9627,-1.9621,-1.9597,-1.9594,-1.958,-1.9567,-1.9559,-1.9544,-1.9535,-1.9522,-1.9516,-1.9514,-1.9498,-1.9502,-1.9497,-1.9483,-1.9483,-1.9487,-1.9512,-1.9522,-1.9534,-1.9502,-1.9502,-1.9502,0,-1.9677,-1.9665,-1.9664,-1.9641,-1.9638,-1.9636,-1.962,-1.9614,-1.9596,-1.9586,-1.9576,-1.9559,-1.9553,-1.954,-1.9529,-1.9526,-1.9519,-1.9509,-1.9509,-1.9507,-1.9494,-1.951,-1.9537,-1.9539,-1.9505,-1.9504,-1.9504,0,-1.9709,-1.9693,-1.9689,-1.9682,-1.9656,-1.9654,-1.9643,-1.9625,-1.9617,-1.9604,-1.9598,-1.9584,-1.9577,-1.9565,-1.9545,-1.9538,-1.9535,-1.9522,-1.9526,-1.9526,-1.9527,-1.9527,-1.9552,-1.9523,-1.9523,-1.9523,-1.9523,0,-1.9734,-1.9734,-1.9703,-1.97,-1.9698,-1.9675,-1.9673,-1.9659,-1.9643,-1.9636,-1.9615,-1.9609,-1.9582,-1.9573,-1.9556,-1.9548,-1.9546,-1.9536,-1.9532,-1.9538,-1.9539,-1.9533,-1.9531,-1.9524,-1.9524,-1.9524,-1.9523,0,-1.977,-1.9749,-1.9743,-1.9718,-1.9711,-1.971,-1.9688,-1.9683,-1.9667,-1.9659,-1.9656,-1.963,-1.9617,-1.9595,-1.9577,-1.9565,-1.956,-1.9553,-1.9566,-1.9563,-1.9568,-1.9567,-1.959,-1.9591,-1.9563,-1.9563,-1.9563,0,-1.9787,-1.9786,-1.976,-1.9753,-1.9743,-1.9733,-1.9725,-1.9701,-1.9693,-1.9671,-1.9669,-1.9654,-1.9641,-1.9621,-1.96,-1.9585,-1.9577,-1.9586,-1.9574,-1.9579,-1.9575,-1.9575,-1.9574,-1.9588,-1.9589,-1.9589,-1.9589,0,-1.9819,-1.9808,-1.9797,-1.9781,-1.9772,-1.9758,-1.9744,-1.974,-1.9712,-1.9704,-1.969,-1.968,-1.9659,-1.9644,-1.9625,-1.9612,-1.9595,-1.9593,-1.9593,-1.9599,-1.9605,-1.96,-1.9572,-1.9593,-1.9592,-1.9592,-1.9592,-1.9592,-1.9845,-1.9842,-1.9822,-1.9809,-1.9795,-1.9781,-1.9775,-1.9758,-1.9746,-1.9727,-1.9713,-1.97,-1.9679,-1.9652,-1.9639,-1.9627,-1.962,-1.9621,-1.962,-1.9621,-1.9622,-1.9607,-1.9624,-1.9624,-1.9624,-1.9624,-1.9624,0,-1.9874,-1.986,-1.9848,-1.9828,-1.9817,-1.9802,-1.9784,-1.9776,-1.9765,-1.9747,-1.9734,-1.9716,-1.9701,-1.9678,-1.966,-1.9655,-1.9646,-1.9651,-1.965,-1.9647,-1.963,-1.9632,-1.9657,-1.9657,-1.9657,-1.9657,-1.9657,-1.9657,-1.9889,-1.9881,-1.9867,-1.9852,-1.9837,-1.9823,-1.9814,-1.98,-1.9786,-1.9767,-1.9754,-1.9739,-1.9718,-1.9698,-1.9682,-1.9676,-1.967,-1.9676,-1.9667,-1.9652,-1.9649,-1.9646,-1.9647,-1.9675,-1.9675,-1.9684,-1.9684,-1.9685]}]]